Regional Weather Roundup
Issued by NWS

Home | Current Version | Previous Version | Graphics & Text | Print | Product List | Glossary On
Versions: 1 2 3 4 5 6 7 8 9 10 11 12 13 14 15 16 17 18 19 20 21 22 23 24 25 26 27 28 29 30 31 32 33 34 35 36 37 38 39 40 41 42 43 44 45 46 47 48 49 50
570
ASUS43 KDTX 162310
RWRMI
MICHIGAN HOURLY REGIONAL WEATHER ROUNDUP
NATIONAL WEATHER SERVICE DETROIT/PONTIAC MI
ISSUED BY NATIONAL WEATHER SERVICE GRAND RAPIDS MI
600 PM EST MON JAN 16 2017

NOTE: "FAIR" INDICATES FEW OR NO CLOUDS BELOW 12,000 FEET WITH NO
SIGNIFICANT WEATHER AND/OR OBSTRUCTION TO VISIBILITY.

MIZ047>049-052>055-059>063-066>070-074>076-081>083-170000-
SOUTHEAST LOWER MICHIGAN

CITY           SKY/WX    TMP DP  RH WIND       PRES   REMARKS
ADRIAN         MIX PCPN  32  29  88 E8        30.19F WCI  25
ALMA           LGT SNOW  32  30  93 E5        30.20F WCI  27
ANN ARBOR      CLOUDY    33  28  81 E6        30.19F WCI  28
BAD AXE        CLOUDY    32  24  71 S6        30.21F WCI  27
DETROIT        CLOUDY    35  30  82 E5        30.22F WCI  31
FLINT          MIX PCPN  32  27  81 E6        30.21F WCI  26
GROSSE ILE     CLOUDY    33  29  86 E5        30.21F WCI  29
HILLSDALE      MIX PCPN  32  32 100 E8        30.14S WCI  25
HOWELL         MIX PCPN  32  29  88 E3        30.19F

CITY           SKY/WX    TMP DP  RH WIND       PRES   REMARKS
JACKSON        LGT RAIN  33  29  85 E6        30.17S FOG     WCI  28
LANSING        LGT RAIN  33  29  85 E7        30.19F FOG     WCI  27
MASON          MIX PCPN  32  31  96 E6        30.18F WCI  26
MONROE         CLOUDY    33  31  93 E8        30.19F WCI  26
MT. CLEMENS    CLOUDY    33  31  96 CALM      30.22S
PONTIAC        LGT RAIN  32  28  85 SE6       30.19S FOG     WCI  26
PORT HOPE        N/A     34  19  54 S3        30.20F
PORT HURON     MIX PCPN  32  30  93 CALM      30.24S
TRI CITIES     MIX PCPN  32  29  88 CALM      30.22S
YPSILANTI      LGT RAIN  35  30  82 E6        30.21F WCI  30
$$
MIZ043>046-050>051-056>058-064>065-071>073-077>080-170000-
SOUTHWEST LOWER MICHIGAN

CITY           SKY/WX    TMP DP  RH WIND       PRES   REMARKS
BATTLE CREEK   LGT RAIN  34  33  96 E7        30.13F FOG     WCI  28
BENTON HARBOR  LGT RAIN  37  34  89 E9        30.09F FOG     WCI  30
BIG RAPIDS     FLURRIES  32  25  75 E3        30.16F
COLDWATER      LGT RAIN  34  34 100 SE10      30.13F WCI  26
HOLLAND        LGT RAIN  33  31  92 E12       30.12F WCI  24
GRAND RAPIDS   FRZ RAIN  32  29  88 E13       30.15F FOG     WCI  22
KALAMAZOO      LGT RAIN  36  33  89 E7        30.12F FOG     WCI  30
MARSHALL       LGT RAIN  34  33  98 E6        30.14F WCI  29
MOUNT PLEASANT MIX PCPN  31  27  82 CALM      30.19F
MUSKEGON       LGT RAIN  34  31  88 E10       30.13F WCI  26
STURGIS        MIX PCPN  34  34  99 SE8       30.11F WCI  27
$$
MIZ016>042-170000-
NORTHERN LOWER MICHIGAN

CITY           SKY/WX    TMP DP  RH WIND       PRES   REMARKS
ALPENA         CLOUDY    27  18  69 SE3       30.19F
BEAVER ISLAND  CLOUDY    28  27  93 S5        30.16F WCI  23
BELLAIRE       CLOUDY    28  25  89 CALM      30.17F
CADILLAC       CLOUDY    33  24  71 SE3       30.14F
CHARLEVOIX     CLOUDY    32  26  79 S3        30.19F
GAYLORD        CLOUDY    32  21  64 CALM      30.14F
HOUGHTON LAKE  CLOUDY    34  19  54 S5        30.16F WCI  30
MANISTEE       LGT RAIN  35  27  72 SE6       30.16S WCI  30
OSCODA         PTCLDY    32  25  74 S3        30.20S
PELLSTON       CLOUDY    26  19  74 CALM      30.17F
TRAVERSE CITY  CLOUDY    33  23  66 CALM      30.15F
LUDINGTON      LGT SNOW  32  28  86 E6        30.15F WCI  26
$$
MIZ007>008-015-170000-
EASTERN UPPER MICHIGAN

CITY           SKY/WX    TMP DP  RH WIND       PRES   REMARKS
KINROSS        CLOUDY    30  24  78 SW3       30.16R
MACKINAC ISLAN CLOUDY    31  28  86 SW6       30.16S WCI  26
NEWBERRY       CLOUDY    25  21  83 S5        30.14S WCI  20
S. S. MARIE    PTCLDY    28  20  71 CALM      30.15S
$$
MIZ004>006-011>014-085-170000-
CENTRAL UPPER MICHIGAN

CITY           SKY/WX    TMP DP  RH WIND       PRES   REMARKS
MANISTIQUE     CLOUDY    23  22  96 CALM      30.14F
ESCANABA       CLOUDY    27  21  78 S7        30.13F WCI  19
SAWYER-GWINN   CLEAR     30  19  64 S3        30.10S
$$
MIZ001>003-009>011-084-170000-
WESTERN UPPER MICHIGAN

CITY           SKY/WX    TMP DP  RH WIND       PRES   REMARKS
IRON MOUNTAIN  CLOUDY    29  18  63 E5        30.09S WCI  24
HOUGHTON       CLOUDY    25  18  74 CALM      30.08S
COPPER HARBOR    N/A     28  25  88 S3        30.11S
IRONWOOD       CLOUDY    30  22  72 CALM      30.08R
$$

ABBREVIATIONS USED IN REMARKS
   TC - TEMPERATURE IN CELSIUS
  WCI - WIND CHILL INDEX
   HX - HEAT INDEX
  VSB - VISIBILITY





USA.gov is the U.S. government's official web portal to all federal, state and local government web resources and services.